CZ-6A DEB, 54316

Orbit data source: Space-Track

CZ-6A DEB, 54316 is space debris in SSO originally from a launch on Fri, 11 Nov 2022 UTC launched from the Taiyaun Space Center, China (TSC). Debris objects in space refer to the collection of defunct objects orbiting the Earth. Examples of debris include non-operational satellites, rocket bodies, and fragments generated from explosions, collisions, or faulty payload assembly.

Loading next visibility...
Identifier
54316, 2022-151BK
Orbit
SSO
Country
Flag of CNCN / PRC
Related business
Manufacturer
SAST
Mission
Spacecraft
Bus & Motor
Unknown
Mass
Unknown
Launch date (UTC)
2022-11-11 (4 years ago)
Launch vehicle
Unknown
Launch site
Taiyaun Space Center, China (TSC)
Object type
Payload
Rocket body
Debris
Shape & HBR
Unknown shape, 0.1 m
Radar Cross Section
Medium (>0.1 m² and <1 m²)

Expand to show TLE details & history
Last TLE update: 2 days ago

TLE from 2 days ago
0 CZ-6A DEB
1 54316U 22151BK  26170.97932402  .00000410  00000-0  24372-3 0  9998
2 54316  98.8221 171.6414 0038999 314.0806  45.7158 14.12559559185038
Epoch: 2026-06-19T23:30Z
TLE epoch observation values (Epoch: 2026-06-19T23:30:13.595Z)
Latitude
0.00001°
Longitude
-89.11578°
Altitude
833.896 km
Speed
7.446 km/s
True Right ascension
11h 26m 33s
True Declination
0° 00' 00"
Sunlit
Object was in daylight at epoch
Visualization orbit readout
Latitude
Unknown
Longitude
Unknown
Altitude
Unknown
Speed
Unknown
Apparent Right ascension
Unknown
Apparent Declination
Unknown
Sunlit
N/A
Visualization observer readout
Local Sidereal Time
21:32:21
Azimuth
Unknown
Elevation
Unknown
Doppler factor
Unknown
Orbital elements
Apogee altitude
875.98 km
Perigee altitude
819.62 km
Semi-major axis
7,225.937 km
Eccentricity
0.0039
Inclination
98.8221°
RAAN
171.6414°
Arg. of periapsis
314.0806°
True anomaly
46.03682°
Mean anomaly
45.7158°
Eccentric anomaly
45.8762°
Mean motion
3.53347 °/min
Orbital period
101.88 mins
BSTAR
0.00024372
Loading maneuver chart data...
Computing Atmospheric mass density...
Loading historical data...
Loading historical data...
Loading historical data...
Loading historical data...
Loading historical data...
Loading historical data...
Loading historical data...

Documentation

Showing up to 5 results
|